Theta_e
343 346 345 348 351 350 348 351 348 350 350 350 350 350 350 348 346 346 348 345 340 339 332 333 336 338 335 330 328 327 335 337 340 341 341 338 334 335 338 339 339 337 337
345 346 350 350 351 350 348 348 350 349 350 352 351 351 350 350 347 347 347 345 341 336 333 335 337 337 335 332 332 326 324 333 334 337 341 341 340 335 335 339 339 339 338
352 347 349 349 348 351 350 350 347 348 351 348 348 350 349 350 350 348 347 345 344 336 336 337 338 336 333 330 332 333 326 324 330 333 334 334 340 340 335 338 339 338 339
350 349 352 350 349 350 350 352 351 350 347 342 339 340 347 350 349 349 348 344 345 339 339 338 340 337 333 330 333 333 327 321 321 326 332 335 335 338 340 336 337 336 339
351 349 353 351 351 347 342 349 352 345 345 343 337 338 344 343 343 344 348 343 341 342 341 340 338 335 332 335 332 333 332 323 320 319 319 324 331 336 338 339 335 334 338
350 351 351 350 349 345 339 348 350 348 346 341 336 341 343 342 341 344 343 342 339 339 340 340 336 332 335 332 333 333 327 324 320 324 323 318 318 326 336 338 333 331 338
350 352 351 349 347 350 351 348 345 335 338 338 342 342 342 343 343 342 341 341 341 339 339 337 332 328 328 327 328 331 330 327 326 324 322 322 322 318 322 336 337 337 339
349 349 350 345 348 352 350 353 353 349 341 333 338 338 342 341 340 337 337 339 339 339 337 335 332 330 327 327 327 330 332 330 329 323 326 326 325 324 321 319 332 337 336
350 350 348 345 347 350 352 348 352 354 350 339 341 340 341 339 332 338 338 338 336 336 336 334 334 332 330 328 328 328 329 331 329 325 326 326 325 326 326 320 318 333 332
351 352 353 352 353 350 350 350 351 352 351 347 342 344 341 333 336 337 337 338 338 336 335 335 333 334 329 327 326 328 328 330 329 327 325 326 325 326 326 325 319 319 333
352 353 353 353 352 353 352 351 349 352 353 350 342 340 344 336 340 338 338 339 339 338 336 335 335 331 328 327 324 325 328 328 327 326 326 325 325 325 326 325 320 318 328
354 353 350 350 352 353 355 351 351 350 355 353 350 344 341 340 341 340 340 339 338 338 336 335 333 331 329 325 324 325 327 326 325 326 325 324 324 324 325 323 319 318 329
354 352 350 349 353 354 355 354 351 348 350 350 352 352 350 343 340 342 338 339 339 338 335 333 332 331 329 325 324 324 323 322 321 320 321 321 319 322 324 320 318 318 332
347 349 349 350 354 356 356 351 350 350 347 345 346 348 349 348 344 342 341 340 339 336 334 332 331 331 327 324 322 321 322 321 320 320 320 319 318 318 320 319 318 317 333
342 342 342 345 345 347 349 351 352 349 347 341 344 347 346 341 345 343 344 340 340 335 333 330 329 330 329 324 323 322 321 321 320 319 319 319 319 318 318 319 319 317 330
331 331 340 346 351 350 349 347 342 336 340 344 347 345 345 341 342 345 345 343 340 335 331 329 330 330 329 324 324 325 322 322 321 318 317 317 318 318 317 318 319 317 319
333 340 346 345 345 336 334 337 348 349 347 347 349 349 346 343 343 344 345 344 339 331 330 329 329 330 328 324 323 321 321 320 320 319 317 316 317 318 317 319 319 319 318
328 330 335 337 342 348 349 347 343 346 350 347 347 350 346 346 343 346 346 344 333 331 330 328 329 328 328 322 322 322 320 320 321 321 319 319 318 317 318 320 321 321 319
346 347 349 348 344 346 350 348 350 350 352 347 346 349 350 345 344 345 346 343 334 331 327 328 325 326 326 323 323 321 321 321 321 324 324 323 322 320 319 322 321 321 321
351 349 346 348 346 349 348 350 349 346 345 344 347 347 349 345 344 346 345 342 333 329 327 328 321 322 323 323 320 321 322 322 322 322 324 323 324 322 319 322 321 321 322
352 348 349 350 347 345 342 341 340 342 346 347 347 346 348 346 344 345 344 343 336 329 327 329 322 322 323 321 322 323 324 324 324 325 324 323 323 323 321 321 322 322 322
352 350 350 349 347 341 341 343 348 348 348 346 346 348 347 348 345 345 344 342 334 330 324 330 326 322 323 320 322 324 324 325 325 325 325 324 324 323 323 320 321 323 322
349 349 346 342 343 348 350 351 349 349 347 347 348 349 348 347 346 346 344 341 333 324 322 328 328 321 321 321 323 325 325 325 325 326 326 324 324 324 323 322 320 321 322
342 343 346 347 348 349 348 349 348 345 343 343 344 345 348 348 347 344 345 342 332 319 319 329 330 326 324 324 325 325 325 326 325 327 326 326 324 324 324 323 320 320 322
342 343 342 346 351 352 352 350 347 343 341 342 343 344 347 348 346 343 343 338 330 318 320 327 329 326 326 325 324 325 325 326 328 328 328 326 326 327 327 324 322 319 321
332 334 339 346 351 351 352 350 344 343 342 341 343 342 346 347 344 339 334 332 324 319 320 324 326 327 326 325 324 325 325 327 328 328 328 327 327 325 325 327 324 321 320
Wind_Speed
3 5 6 6 5 6 3 2 5 7 7 9 11 14 15 13 11 13 12 14 14 13 11 9 8 7 8 7 6 7 12 16 18 20 23 24 25 26 26 26 26 22 23
3 3 5 6 5 4 5 2 3 6 7 10 14 15 16 17 14 13 14 15 15 16 13 11 11 10 12 11 9 8 10 13 16 19 22 25 27 25 26 26 26 26 26
8 2 3 4 4 2 3 7 6 7 8 10 13 17 17 16 17 14 13 13 17 16 14 13 13 13 16 15 11 11 12 14 15 17 20 24 26 25 30 25 25 27 27
4 4 2 5 3 5 6 6 8 9 8 11 19 21 17 15 17 16 13 13 17 17 17 15 15 15 16 13 15 11 12 12 13 15 17 18 22 23 25 34 29 27 28
1 1 2 3 4 9 6 8 10 9 8 11 16 14 12 9 16 16 12 14 15 16 15 14 11 8 9 13 14 13 15 15 13 13 14 16 16 17 21 24 33 36 28
1 3 5 6 5 4 6 4 7 8 9 11 11 9 11 9 6 7 12 15 14 14 11 11 9 6 6 9 10 12 13 13 12 12 11 12 14 15 14 21 22 32 28
5 4 6 7 5 5 4 3 4 6 7 8 3 1 3 2 4 7 9 13 13 10 11 10 9 7 6 8 8 9 10 13 13 13 10 9 10 9 10 15 24 30 30
6 7 8 7 6 6 3 4 5 4 7 7 6 1 2 1 2 5 7 11 12 13 11 11 11 10 8 11 12 13 12 14 15 15 13 13 12 8 5 10 12 20 28
6 5 6 5 6 7 5 8 7 7 9 7 4 2 3 5 7 3 7 13 14 15 14 14 14 12 12 12 15 15 17 16 16 16 16 16 14 11 5 5 11 14 25
10 9 8 10 9 9 9 8 10 10 11 8 5 5 5 5 7 7 12 18 17 15 16 17 15 14 15 14 17 14 19 12 14 13 13 12 14 10 10 7 8 12 15
13 11 13 14 15 14 12 11 11 11 11 10 9 10 10 9 19 12 12 14 15 14 13 17 15 13 13 12 11 7 10 9 13 12 14 16 16 11 11 11 8 11 16
14 14 15 16 16 15 15 14 14 14 15 14 13 14 15 13 15 5 13 16 17 15 15 15 14 11 12 10 8 7 8 11 13 15 16 13 11 11 14 14 10 13 15
17 16 15 15 12 13 14 17 16 18 17 17 17 18 18 16 14 10 12 17 16 17 14 15 12 10 10 9 8 8 8 10 9 9 9 8 7 8 15 13 11 14 15
21 20 17 14 14 14 16 19 19 20 20 19 19 20 22 21 17 12 8 14 17 16 16 15 10 11 10 6 8 7 9 7 7 7 6 6 7 8 13 12 12 15 15
25 25 26 25 20 19 19 20 22 24 23 21 20 20 21 25 23 16 13 14 16 15 16 14 13 9 9 7 7 7 5 8 6 5 6 7 8 8 10 12 13 15 17
23 20 19 18 16 17 20 23 27 24 23 22 21 21 17 19 26 21 18 10 14 15 17 13 12 10 10 8 7 7 6 7 2 3 7 10 10 10 10 12 14 14 18
17 16 17 18 21 22 20 18 19 22 24 24 25 25 17 17 23 24 18 11 13 11 12 10 10 12 12 10 7 7 7 6 3 3 5 8 11 12 10 12 14 15 17
12 15 16 16 16 16 17 19 23 25 23 21 22 26 19 19 19 22 19 10 10 11 9 7 8 12 15 11 10 8 10 8 6 3 4 6 9 10 11 13 14 15 17
10 11 12 14 17 19 20 19 20 21 22 26 22 21 25 14 15 17 16 9 10 10 7 4 4 15 20 14 13 11 11 8 7 5 5 5 9 9 13 15 14 15 16
15 15 16 16 18 21 22 24 22 24 26 22 18 17 15 12 14 13 11 8 9 11 8 3 5 18 20 15 13 13 12 11 9 8 5 4 5 10 13 14 14 16 18
17 17 18 18 21 25 26 26 25 26 24 20 18 16 10 10 13 11 10 8 8 10 9 6 9 19 21 18 13 11 10 9 9 10 10 9 9 8 12 16 16 17 18
20 19 23 24 26 27 24 22 20 20 20 19 17 15 12 10 10 13 10 8 6 6 8 10 8 16 19 16 13 10 8 9 7 8 12 13 14 13 14 17 17 18 19
19 20 22 23 20 18 16 16 14 14 17 14 11 11 11 11 12 12 9 9 6 6 5 4 6 10 14 11 12 11 8 8 6 1 5 9 11 14 18 18 19 19 20
14 14 15 15 16 13 12 11 9 11 12 12 10 9 9 9 9 9 8 8 5 7 7 10 7 6 6 8 7 5 4 5 8 6 4 6 9 12 17 20 22 21 21
10 10 12 13 10 9 7 7 9 13 9 7 7 8 5 4 7 9 9 7 5 7 8 12 11 12 9 9 11 10 9 6 8 8 8 7 8 10 13 22 24 24 24
7 8 11 11 9 8 9 8 7 4 6 11 11 8 4 8 7 7 7 3 4 5 6 8 13 17 14 12 13 11 9 6 7 8 10 12 10 13 12 16 27 28 28
Wind_Direction
34 131 185 212 220 228 227 279 257 245 253 264 263 258 255 259 269 268 247 248 244 239 229 231 245 266 273 263 264 240 236 235 234 228 228 229 225 221 216 208 203 203 195
47 141 180 161 177 218 220 221 241 249 259 279 281 266 260 253 261 262 254 258 252 240 238 241 258 273 266 256 258 257 233 228 231 231 226 227 228 223 217 220 206 205 201
57 35 133 206 210 27 252 245 271 296 274 291 293 281 275 253 259 264 252 247 254 243 246 253 263 271 265 246 240 245 243 231 225 230 231 228 227 221 214 217 215 208 207
48 30 44 78 101 326 290 266 278 290 274 296 292 279 275 254 262 265 255 259 260 247 254 251 260 270 258 249 256 244 250 243 231 227 229 229 227 224 220 218 213 208 208
70 281 338 336 339 342 325 259 271 293 279 312 307 288 254 278 276 265 257 258 257 238 244 252 265 271 240 254 251 258 253 248 230 221 223 226 223 222 211 211 209 212 209
253 332 278 296 298 346 8 266 272 303 306 332 310 281 247 260 262 263 264 266 271 249 240 263 269 261 258 257 256 257 247 245 225 227 225 235 229 219 206 207 201 214 211
242 282 261 292 269 296 281 2 359 328 302 333 355 57 233 227 216 235 263 276 283 270 245 262 270 265 280 289 296 241 250 240 235 229 220 233 238 227 206 202 202 210 195
236 277 287 282 253 276 261 278 330 319 332 331 3 322 241 123 322 271 259 260 269 266 262 267 256 266 266 285 288 273 259 231 234 220 231 249 243 235 210 213 206 202 196
264 297 310 296 277 296 289 307 328 330 320 320 336 6 221 226 285 291 295 285 269 271 261 263 254 264 267 277 275 266 260 248 225 222 249 252 240 233 236 224 209 201 210
253 272 290 288 291 296 300 310 327 324 322 313 294 269 260 258 316 269 264 269 280 269 256 252 255 253 257 266 269 259 247 237 218 236 238 247 244 243 246 244 234 207 208
241 268 274 282 285 282 296 305 314 315 316 311 286 270 256 257 334 276 283 282 279 287 274 244 242 245 263 277 269 242 232 201 209 233 250 269 268 249 232 246 233 216 199
244 261 273 281 277 266 282 297 298 301 298 293 299 278 275 263 333 302 288 288 279 284 268 254 248 251 264 263 259 226 215 225 226 236 251 256 254 237 227 237 223 215 199
252 264 285 292 272 266 275 289 296 299 297 298 285 290 286 283 293 313 286 281 265 277 262 259 247 251 255 250 250 207 209 205 218 225 230 233 225 211 208 220 211 206 199
259 267 272 278 271 266 275 286 293 295 296 294 291 294 301 302 274 288 317 275 258 271 265 259 246 250 238 225 204 201 200 196 201 212 200 205 205 202 212 211 202 198 189
264 268 274 279 280 279 279 284 292 297 298 295 289 297 304 306 292 270 288 277 247 261 272 263 254 239 221 211 227 198 194 192 173 195 220 212 205 197 207 204 197 196 186
266 269 275 283 287 286 287 291 295 298 297 295 288 281 283 299 302 282 285 272 248 257 272 265 247 231 203 202 212 193 216 203 211 188 195 208 204 197 201 199 193 190 190
268 270 273 283 289 290 289 294 300 303 303 305 296 291 282 279 287 290 272 266 243 248 262 269 238 213 198 200 201 178 190 190 188 219 205 203 196 196 197 195 190 187 188
276 276 278 283 288 295 300 300 302 302 306 310 305 293 277 273 284 283 268 260 243 246 262 279 204 201 189 194 189 176 175 175 176 188 183 163 177 191 189 192 191 189 187
271 275 282 291 293 295 295 298 301 302 302 309 311 312 306 271 282 284 261 227 229 232 244 267 228 189 183 190 188 187 181 195 190 171 172 185 192 186 191 194 188 185 183
274 278 285 287 291 293 299 301 300 303 306 304 306 312 311 275 285 281 259 230 219 225 215 222 174 176 180 180 189 194 191 196 205 204 205 200 167 187 194 191 187 185 183
285 288 286 287 293 293 299 297 296 298 300 301 301 299 292 270 287 272 256 229 216 223 210 204 173 179 183 187 180 189 196 205 222 234 230 229 234 215 195 192 190 188 189
284 290 293 293 295 298 297 297 298 294 300 303 299 293 286 273 279 264 246 227 218 229 218 208 192 194 193 190 184 178 206 219 234 239 236 239 244 220 198 196 195 195 193
287 287 293 300 301 304 299 296 293 301 313 315 313 296 289 278 269 244 243 223 211 216 220 233 201 191 187 184 201 211 229 243 229 286 209 220 224 218 207 197 198 199 195
285 293 300 302 306 298 292 298 312 317 319 320 323 307 284 270 259 235 228 225 223 215 208 199 200 196 177 186 213 215 226 229 242 241 212 195 206 205 207 200 199 200 196
285 302 313 322 319 308 299 305 311 321 335 358 336 315 288 261 217 245 221 220 225 213 196 186 193 211 204 194 209 203 212 249 258 246 237 218 207 196 200 199 200 201 199
288 311 326 332 320 305 292 300 317 359 360 3 5 8 6 216 223 195 201 208 229 225 200 193 195 204 208 195 207 214 225 246 261 256 235 229 219 218 205 203 203 200 200